Location: Estes Par
(40.3770°N, 105.5210°W)
Time: 22:24:02
(UTC-06:00)

Vanguard 2 Rocket - Visible Passes

Search period start: 22 July 2018 00:00
Search period end: 01 August 2018 00:00
Orbit: 554 x 3327 km, 32.9° (Epoch: 22 July)

Date Brightness Start Highest point End Pass type
(mag) Time Alt. Az. Time Alt. Az. Time Alt. Az.
22 Jul 8.5 02:21:31 22° SE 02:21:31 22° SE 02:25:25 10° E visible
22 Jul 7.9 04:27:19 18° WSW 04:32:10 51° S 04:42:49 10° ESE visible
23 Jul 7.4 03:31:14 37° SSW 03:32:42 43° SSE 03:41:11 10° E visible
24 Jul 8.1 02:35:11 28° SE 02:35:11 28° SE 02:39:54 10° E visible
24 Jul 7.9 04:41:00 14° WSW 04:46:22 50° S 04:56:48 10° ESE visible
25 Jul 7.3 03:44:59 36° SW 03:46:51 46° S 03:55:19 10° ESE visible
26 Jul 7.7 02:49:00 33° SE 02:49:00 33° SE 02:54:12 10° ESE visible
26 Jul 8.0 04:54:50 11° WSW 05:00:36 44° S 05:10:35 10° ESE visible
27 Jul 9.1 01:53:05 11° ESE 01:53:05 11° ESE 01:53:28 10° ESE visible
27 Jul 7.4 03:58:54 31° SW 04:01:04 43° S 04:09:19 10° ESE visible
28 Jul 7.6 03:03:03 35° SE 03:03:03 35° SE 03:08:22 10° ESE visible
28 Jul 8.2 05:09:15 10° WSW 05:14:53 35° S 05:24:03 10° SE visible
29 Jul 9.0 02:07:14 12° ESE 02:07:14 12° ESE 02:07:48 10° ESE visible
29 Jul 7.6 04:13:05 27° SW 04:15:21 37° S 04:23:04 10° ESE visible
30 Jul 7.6 03:17:21 33° SSE 03:17:21 33° SSE 03:22:22 10° ESE visible
30 Jul 8.5 05:24:02 10° WSW 05:29:12 26° SSW 05:36:59 10° SE visible
31 Jul 9.1 02:21:42 11° ESE 02:21:42 11° ESE 02:21:59 10° ESE visible
31 Jul 7.8 04:27:33 23° SW 04:29:39 28° SSW 04:36:30 10° SE visible
